LiveATC.Net - Listen to live air traffic control over the Internet!

ICAO: KACK  IATA: ACK   Airport: Nantucket Memorial Airport
City: Nantucket   State/Province: Massachusetts
Country: United States   Continent: North America
KACK METAR Weather: KACK 211353Z 12013KT 10SM FEW055 FEW080 BKN120 19/18 A2986 RMK AO2 SLP112 T01940178
KACK Flight Activity (FlightAware)
KACK Airport Info   (AirNav) (iFlightPlanner)
KACK VFR Sectional Chart   (iFlightPlanner) 
KACK IFR Low Chart   (iFlightPlanner) 
KACK Tower
Feed Status: UP   Listeners: 0
Listen right in your browser - requires Flash (in browser, requires Flash)
Click here to listen with your own player (launches your MP3 player)
KACK Tower Audio Archives
Nantucket Tower118.300


Unauthorized use prohibited. See Terms of Service

Find LiveATC Audio Streams

Airport/ARTCC Code

(e.g., 124.400, 128.75)
Site-wide search

Browse LiveATC Feeds
LiveATC Coverage Map
Top 50 LiveATC Feeds
Bad Weather Areas

Offer a LiveATC Feed
Press Inquiries

LiveATC on iPhone
LiveATC on Android

Windows Phone
Windows 8/10

LiveATC Mobile
(Mobile browser)

ATC Audio Archives
Interesting Recordings

LiveATC Forums

Home Page
Make a Donation
LiveATC Store

Terms of Use
Privacy Policy

Canadian Air Freqs


FAA Airport Status
Nat'l Airspace Status
Arrival Demand Charts

Server Software By: